This is the latest recevied weather packets stored in our database for station/object NK7I. If no packets are shown the sender has not sent any weather packets the latest 10 day(s).
| Time | Temp. | Humidity | Pressure | Rain* | Wind** | Luminosity | Snow |
|---|---|---|---|---|---|---|---|
| 1777611982 | 12.22° C | 56% | 1017.5 hPa | 0 mm | - | 0 W/m² | - |
| 1777611682 | 12.22° C | 56% | 1017.4 hPa | 0 mm | - | 0 W/m² | - |
| 1777611383 | 12.78° C | 56% | 1017.4 hPa | 0 mm | - | 0 W/m² | - |
| 1777611084 | 12.78° C | 54% | 1017.4 hPa | 0 mm | - | 0 W/m² | - |
| 1777610783 | 12.78° C | 54% | 1017.4 hPa | 0 mm | - | 0 W/m² | - |
| 1777610483 | 13.33° C | 54% | 1017.4 hPa | 0 mm | - | 0 W/m² | - |
| 1777610183 | 13.33° C | 52% | 1017.4 hPa | 0 mm | - | 0 W/m² | - |
| 1777609882 | 13.89° C | 54% | 1017.5 hPa | 0 mm | - | 0 W/m² | - |
| 1777609582 | 13.89° C | 51% | 1017.4 hPa | 0 mm | - | 0 W/m² | - |
| 1777609282 | 14.44° C | 50% | 1017.4 hPa | 0 mm | - | 0 W/m² | - |
| 1777608983 | 14.44° C | 49% | 1017.4 hPa | 0 mm | - | 0 W/m² | - |
| 1777608682 | 14.44° C | 47% | 1017.4 hPa | 0 mm | - | 0 W/m² | - |
| 1777608382 | 15° C | 46% | 1017.3 hPa | 0 mm | - | 0 W/m² | - |
| 1777608082 | 15° C | 46% | 1017.3 hPa | 0 mm | - | 0 W/m² | - |
| 1777607783 | 15.56° C | 45% | 1017.3 hPa | 0 mm | - | 0 W/m² | - |
| 1777607483 | 16.11° C | 44% | 1017.2 hPa | 0 mm | - | 0 W/m² | - |
| 1777607184 | 16.11° C | 43% | 1017.2 hPa | 0 mm | - | 0 W/m² | - |
| 1777606884 | 16.67° C | 42% | 1017.2 hPa | 0 mm | - | 0 W/m² | - |
| 1777606583 | 16.67° C | 39% | 1017.2 hPa | 0 mm | - | 0 W/m² | - |
| 1777606282 | 17.22° C | 37% | 1017.1 hPa | 0 mm | - | 0 W/m² | - |
| 1777605982 | 17.22° C | 38% | 1017 hPa | 0 mm | - | 0 W/m² | - |
| 1777605682 | 17.22° C | 37% | 1017.1 hPa | 0 mm | - | 0 W/m² | - |
| 1777605382 | 17.78° C | 36% | 1017 hPa | 0 mm | - | 0 W/m² | - |
| 1777605082 | 17.78° C | 36% | 1017 hPa | 0 mm | - | 0 W/m² | - |
| 1777604782 | 18.33° C | 36% | 1016.9 hPa | 0 mm | - | 0 W/m² | - |
* Rain latest hour (hover to see other rain measurements)
** Current wind speed in m/s (hover to see current wind gust speed)